Snow/Ice From: 16-12-2017 16:00 Until: 17-12-2017 16:00 warning for: Snow/Ice Level: Yellow info button

Although rather usual in this region, locally or potentially dangerous phenomena are expected. (such as local winds, summer thunderstorms, rising streams or high waves) Be aware and pay attention to the latest weather updates, especially if you carry out activities exposed to weather or close to a stream or shoreline. 


Meteo18 Weather Cam more information Meteo18 Weather Cam


Thunder radar more information blitzortung!


warning for Snow/Ice more information rain snow radar


Visit our other weather sites:

Template documentation
and downloads

And another site



Weather Underground History page Text

Daily Summary for July 13, 2017 Units:  English    Metric   Both
« Previous Day
Next Day »
Daily Weekly Monthly Yearly Custom
  High: Low: Average:
Temperature: 77.4 °F 63 °F 68.9 °F
Dew Point: 62.2 °F 57.2 °F 60.1 °F
Humidity: 94 % 52 % 76 %
Wind Speed: 13 mph 0 mph 2.9 mph
Wind Gust: 17 mph - -
Wind:- - WSW
Pressure: 30.2 in 30.1 in -
Precipitation: 0 in    
Historical Graphs
 
 
Tabular Data for July 13, 2017
Time Temperature Dew Point Pressure Wind Wind Speed Wind Gust Humidity Rainfall Rate (Hourly)
00:02 64.4 °F 61.2 °F 30.2 in WSW 2 mph 4 mph 89 % 0 in
00:12 64.2 °F 61.2 °F 30.2 in SSW 1 mph 4 mph 90 % 0 in
00:22 63.7 °F 61 °F 30.2 in SW 3 mph 4 mph 91 % 0 in
00:32 63.7 °F 61 °F 30.2 in SW 2 mph 4 mph 91 % 0 in
00:42 63.3 °F 61 °F 30.2 in SW 4 mph 4 mph 92 % 0 in
00:47 63.5 °F 61.2 °F 30.2 in WSW 1 mph 5 mph 92 % 0 in
00:52 63.5 °F 61.2 °F 30.2 in SW 4 mph 6 mph 92 % 0 in
00:57 63.7 °F 61.3 °F 30.2 in Calm   6 mph 92 % 0 in
01:02 63.5 °F 61.2 °F 30.2 in WSW 1 mph 6 mph 92 % 0 in
01:12 63.5 °F 61.2 °F 30.2 in Calm   4 mph 92 % 0 in
01:17 63.5 °F 61.5 °F 30.2 in WSW 1 mph 4 mph 93 % 0 in
01:22 63.5 °F 61.5 °F 30.2 in West 1 mph 4 mph 93 % 0 in
01:27 63.5 °F 61.5 °F 30.2 in West 2 mph 4 mph 93 % 0 in
01:32 63.5 °F 61.5 °F 30.2 in WSW 1 mph 4 mph 93 % 0 in
01:37 63.5 °F 61.5 °F 30.2 in West 1 mph 4 mph 93 % 0 in
01:42 63.5 °F 61.5 °F 30.2 in WSW 1 mph 4 mph 93 % 0 in
01:52 63.5 °F 61.5 °F 30.2 in WSW 2 mph 4 mph 93 % 0 in
01:57 63.7 °F 61.7 °F 30.2 in WSW 1 mph 4 mph 93 % 0 in
02:02 63.7 °F 61.7 °F 30.2 in WSW 4 mph 4 mph 93 % 0 in
02:07 63.7 °F 61.7 °F 30.2 in SSW 3 mph 5 mph 93 % 0 in
02:12 63.7 °F 61.7 °F 30.2 in WSW 2 mph 5 mph 93 % 0 in
02:17 63.7 °F 61.7 °F 30.2 in SW 2 mph 5 mph 93 % 0 in
02:22 63.5 °F 61.5 °F 30.2 in SW 2 mph 5 mph 93 % 0 in
02:32 63.3 °F 61.3 °F 30.2 in SW 2 mph 3 mph 93 % 0 in
02:37 63.3 °F 61.3 °F 30.2 in SW 2 mph 5 mph 93 % 0 in
02:42 63.3 °F 61.3 °F 30.2 in SW 1 mph 5 mph 93 % 0 in
02:47 63.3 °F 61.3 °F 30.2 in WSW 2 mph 5 mph 93 % 0 in
02:52 63.1 °F 61.2 °F 30.2 in Calm   5 mph 93 % 0 in
02:57 63.1 °F 61.2 °F 30.2 in Calm   3 mph 93 % 0 in
03:02 63.1 °F 61.2 °F 30.2 in Calm   3 mph 93 % 0 in
03:07 63.1 °F 61.2 °F 30.2 in Calm   1 mph 93 % 0 in
03:12 63.1 °F 61.3 °F 30.2 in Calm   4 mph 94 % 0 in
03:17 63.1 °F 61.2 °F 30.2 in Calm   4 mph 93 % 0 in
03:22 63.3 °F 61.3 °F 30.2 in West 1 mph 4 mph 93 % 0 in
03:32 63.3 °F 61.3 °F 30.2 in WSW 1 mph 2 mph 93 % 0 in
03:37 63.5 °F 61.5 °F 30.2 in WNW 2 mph 3 mph 93 % 0 in
03:42 63.5 °F 61.5 °F 30.2 in West 1 mph 4 mph 93 % 0 in
03:47 63.5 °F 61.5 °F 30.2 in WSW 2 mph 4 mph 93 % 0 in
03:52 63.3 °F 61.3 °F 30.2 in West 1 mph 4 mph 93 % 0 in
03:57 63.3 °F 61.3 °F 30.2 in West 1 mph 3 mph 93 % 0 in
04:02 63.3 °F 61.3 °F 30.2 in Calm   3 mph 93 % 0 in
04:12 63.3 °F 61.3 °F 30.2 in Calm   2 mph 93 % 0 in
04:17 63.3 °F 61.3 °F 30.2 in Calm   2 mph 93 % 0 in
04:22 63.3 °F 61.3 °F 30.2 in West 1 mph 2 mph 93 % 0 in
04:27 63.3 °F 61 °F 30.2 in West 1 mph 3 mph 92 % 0 in
04:32 63.3 °F 61 °F 30.2 in SW 1 mph 3 mph 92 % 0 in
04:37 63.3 °F 61 °F 30.2 in Calm   3 mph 92 % 0 in
04:42 63.3 °F 61 °F 30.2 in Calm   3 mph 92 % 0 in
04:47 63.3 °F 61 °F 30.2 in Calm   2 mph 92 % 0 in
04:52 63.3 °F 61 °F 30.2 in Calm   2 mph 92 % 0 in
04:57 63.3 °F 61 °F 30.2 in Calm   1 mph 92 % 0 in
05:02 63.3 °F 61 °F 30.2 in Calm   1 mph 92 % 0 in
05:07 63.3 °F 61 °F 30.2 in WSW 2 mph 2 mph 92 % 0 in
05:12 63.3 °F 61 °F 30.2 in West 2 mph 3 mph 92 % 0 in
05:17 63.3 °F 61 °F 30.2 in WSW 1 mph 3 mph 92 % 0 in
05:27 63.3 °F 61 °F 30.2 in SW 2 mph 3 mph 92 % 0 in
05:32 63.3 °F 61 °F 30.2 in WSW 2 mph 3 mph 92 % 0 in
05:37 63.3 °F 61 °F 30.2 in West 1 mph 4 mph 92 % 0 in
05:42 63.3 °F 61 °F 30.2 in West 1 mph 4 mph 92 % 0 in
05:47 63.3 °F 60.6 °F 30.2 in SW 3 mph 4 mph 91 % 0 in
05:52 63.3 °F 60.6 °F 30.2 in WSW 1 mph 3 mph 91 % 0 in
05:57 63.3 °F 60.6 °F 30.2 in Calm   3 mph 91 % 0 in
06:02 63.3 °F 60.6 °F 30.2 in Calm   4 mph 91 % 0 in
06:07 63.1 °F 60.4 °F 30.2 in Calm   4 mph 91 % 0 in
06:12 63.1 °F 60.4 °F 30.2 in Calm   4 mph 91 % 0 in
06:17 63.1 °F 60.4 °F 30.2 in Calm   3 mph 91 % 0 in
06:22 63.1 °F 60.4 °F 30.2 in WSW 3 mph 4 mph 91 % 0 in
06:32 63.1 °F 60.4 °F 30.2 in Calm   5 mph 91 % 0 in
06:37 63 °F 60.6 °F 30.2 in WSW 1 mph 5 mph 92 % 0 in
06:42 63 °F 60.6 °F 30.2 in SW 2 mph 4 mph 92 % 0 in
06:47 63 °F 60.6 °F 30.2 in WSW 1 mph 4 mph 92 % 0 in
06:52 63 °F 60.6 °F 30.2 in Calm   5 mph 92 % 0 in
06:57 63 °F 60.6 °F 30.2 in SW 1 mph 5 mph 92 % 0 in
07:02 63 °F 60.6 °F 30.2 in WNW 2 mph 5 mph 92 % 0 in
07:07 63 °F 60.6 °F 30.2 in West 1 mph 5 mph 92 % 0 in
07:12 63.1 °F 60.8 °F 30.2 in Calm   4 mph 92 % 0 in
07:17 63.1 °F 60.8 °F 30.2 in Calm   4 mph 92 % 0 in
07:22 63.1 °F 60.8 °F 30.2 in Calm   3 mph 92 % 0 in
07:27 63.1 °F 60.8 °F 30.2 in Calm   2 mph 92 % 0 in
07:32 63.1 °F 60.8 °F 30.2 in Calm     92 % 0 in
07:37 63.1 °F 60.8 °F 30.2 in Calm     92 % 0 in
07:42 63.3 °F 61 °F 30.2 in Calm     92 % 0 in
07:47 63.3 °F 61 °F 30.2 in West 1 mph   92 % 0 in
07:52 63.3 °F 60.6 °F 30.2 in West 2 mph 4 mph 91 % 0 in
07:57 63.5 °F 60.8 °F 30.2 in WNW 3 mph 4 mph 91 % 0 in
08:02 63.7 °F 61 °F 30.2 in WSW 2 mph 4 mph 91 % 0 in
08:12 63.7 °F 61 °F 30.2 in West 1 mph 4 mph 91 % 0 in
08:22 64 °F 61 °F 30.2 in WNW 2 mph 5 mph 90 % 0 in
08:32 64.2 °F 61.2 °F 30.2 in West 1 mph 5 mph 90 % 0 in
08:37 64.2 °F 61 °F 30.2 in West 2 mph 5 mph 89 % 0 in
08:42 64.4 °F 61.2 °F 30.2 in West 2 mph 4 mph 89 % 0 in
08:47 64.6 °F 61.3 °F 30.2 in WSW 3 mph 5 mph 89 % 0 in
08:52 64.6 °F 61 °F 30.2 in West 3 mph 5 mph 88 % 0 in
08:57 64.9 °F 61.3 °F 30.2 in WNW 4 mph 5 mph 88 % 0 in
09:02 64.9 °F 61.3 °F 30.2 in Calm   5 mph 88 % 0 in
09:07 65.1 °F 61.2 °F 30.2 in WNW 3 mph 5 mph 87 % 0 in
09:12 64.9 °F 60.6 °F 30.2 in SW 5 mph 5 mph 86 % 0 in
09:17 65.1 °F 61.2 °F 30.2 in WNW 3 mph 6 mph 87 % 0 in
09:22 65.3 °F 61.3 °F 30.2 in WNW 3 mph 6 mph 87 % 0 in
09:27 65.1 °F 60.8 °F 30.2 in West 5 mph 6 mph 86 % 0 in
09:37 65.5 °F 61.2 °F 30.2 in West 3 mph 5 mph 86 % 0 in
09:42 65.7 °F 61.3 °F 30.2 in SW 3 mph 5 mph 86 % 0 in
09:47 65.7 °F 61.3 °F 30.2 in West 3 mph 7 mph 86 % 0 in
09:52 65.8 °F 61.5 °F 30.2 in WSW 3 mph 7 mph 86 % 0 in
09:57 66 °F 61.3 °F 30.2 in West 4 mph 7 mph 85 % 0 in
10:02 66.2 °F 61.5 °F 30.2 in West 2 mph 7 mph 85 % 0 in
10:07 66.6 °F 61.9 °F 30.2 in NW 1 mph 6 mph 85 % 0 in
10:12 66.6 °F 61.5 °F 30.2 in SSW 3 mph 6 mph 84 % 0 in
10:17 66.7 °F 62.1 °F 30.2 in SW 2 mph 6 mph 85 % 0 in
10:22 67.1 °F 62.1 °F 30.2 in SSW 1 mph 6 mph 84 % 0 in
10:32 67.3 °F 62.2 °F 30.2 in Calm   7 mph 84 % 0 in
10:37 67.6 °F 61.9 °F 30.2 in West 3 mph 7 mph 82 % 0 in
10:42 68.2 °F 61.3 °F 30.2 in WNW 3 mph 7 mph 79 % 0 in
10:47 68.4 °F 60.8 °F 30.2 in West 4 mph 8 mph 77 % 0 in
10:52 68.9 °F 61.7 °F 30.2 in Calm   8 mph 78 % 0 in
10:57 69.1 °F 61.2 °F 30.2 in West 2 mph 8 mph 76 % 0 in
11:02 69.4 °F 61.9 °F 30.2 in SW 7 mph 8 mph 77 % 0 in
11:12 69.3 °F 61 °F 30.2 in WSW 3 mph 8 mph 75 % 0 in
11:17 69.3 °F 60.6 °F 30.2 in WNW 2 mph 8 mph 74 % 0 in
11:22 70 °F 61.3 °F 30.2 in Calm   8 mph 74 % 0 in
11:32 70.7 °F 60.4 °F 30.2 in WNW 1 mph 6 mph 70 % 0 in
11:37 70.9 °F 59.4 °F 30.2 in WSW 5 mph 8 mph 67 % 0 in
11:42 71.6 °F 61.3 °F 30.2 in WSW 4 mph 8 mph 70 % 0 in
11:47 72.1 °F 59.7 °F 30.2 in SW 3 mph 8 mph 65 % 0 in
11:52 72.1 °F 59.4 °F 30.2 in West 6 mph 8 mph 64 % 0 in
11:57 71.6 °F 58.8 °F 30.2 in WSW 3 mph 9 mph 64 % 0 in
12:02 71.4 °F 59 °F 30.2 in SSW 4 mph 9 mph 65 % 0 in
12:12 70.9 °F 59.4 °F 30.2 in West 2 mph 9 mph 67 % 0 in
12:17 70.9 °F 59 °F 30.2 in SW 5 mph 9 mph 66 % 0 in
12:22 70.9 °F 59.7 °F 30.2 in SW 1 mph 8 mph 68 % 0 in
12:27 71.1 °F 60.4 °F 30.2 in Calm   8 mph 69 % 0 in
12:32 71.4 °F 59.5 °F 30.2 in West 3 mph 8 mph 66 % 0 in
12:42 71.8 °F 60.3 °F 30.2 in WSW 8 mph 9 mph 67 % 0 in
12:47 71.4 °F 60.3 °F 30.2 in SW 1 mph 9 mph 68 % 0 in
12:52 71.4 °F 60.3 °F 30.2 in WSW 5 mph 10 mph 68 % 0 in
12:57 71.8 °F 60.6 °F 30.2 in West 8 mph 10 mph 68 % 0 in
13:02 71.6 °F 60.1 °F 30.2 in SW 8 mph 10 mph 67 % 0 in
13:12 72 °F 60.8 °F 30.2 in SSW 4 mph 11 mph 68 % 0 in
13:17 72.5 °F 61 °F 30.2 in WNW 5 mph 11 mph 67 % 0 in
13:22 73.2 °F 61.2 °F 30.2 in SSW 3 mph 11 mph 66 % 0 in
13:32 73.9 °F 60.1 °F 30.2 in WSW 6 mph 11 mph 62 % 0 in
13:37 74.1 °F 61.2 °F 30.2 in SW 8 mph 11 mph 64 % 0 in
13:47 73.6 °F 60.3 °F 30.2 in SW 1 mph 12 mph 63 % 0 in
13:52 73.2 °F 59 °F 30.2 in SSW 4 mph 12 mph 61 % 0 in
13:57 73.4 °F 60.1 °F 30.2 in WSW 5 mph 9 mph 63 % 0 in
14:02 73.8 °F 61.3 °F 30.2 in SW 7 mph 10 mph 65 % 0 in
14:12 73.2 °F 61.5 °F 30.1 in WSW 11 mph 11 mph 67 % 0 in
14:17 73.8 °F 60.8 °F 30.1 in SW 2 mph 11 mph 64 % 0 in
14:22 73.6 °F 59.7 °F 30.1 in WSW 8 mph 11 mph 62 % 0 in
14:32 73.9 °F 59.7 °F 30.1 in WSW 4 mph 12 mph 61 % 0 in
14:37 74.5 °F 59.7 °F 30.1 in West 3 mph 12 mph 60 % 0 in
14:42 74.1 °F 59.7 °F 30.1 in West 5 mph 11 mph 61 % 0 in
14:52 73.9 °F 59.7 °F 30.1 in WNW 6 mph 12 mph 61 % 0 in
14:57 74.7 °F 60.3 °F 30.1 in WSW 8 mph 12 mph 61 % 0 in
15:02 75 °F 59.7 °F 30.1 in West 6 mph 13 mph 59 % 0 in
15:07 75.4 °F 60.1 °F 30.1 in West 11 mph 13 mph 59 % 0 in
15:12 75.4 °F 59.5 °F 30.1 in West 4 mph 13 mph 58 % 0 in
15:17 75.7 °F 59.9 °F 30.1 in WNW 5 mph 13 mph 58 % 0 in
15:22 75.9 °F 59.2 °F 30.1 in Calm   13 mph 56 % 0 in
15:27 76.6 °F 59.7 °F 30.1 in WNW 7 mph 12 mph 56 % 0 in
15:32 76.8 °F 59.9 °F 30.1 in WSW 12 mph 12 mph 56 % 0 in
15:42 75.2 °F 59 °F 30.1 in WSW 4 mph 12 mph 57 % 0 in
15:47 75 °F 59.2 °F 30.1 in SSW 2 mph 12 mph 58 % 0 in
15:52 75.4 °F 60.1 °F 30.1 in WSW 3 mph 12 mph 59 % 0 in
15:57 75.6 °F 59.2 °F 30.1 in West 4 mph 12 mph 57 % 0 in
16:02 75.6 °F 59.7 °F 30.1 in West 7 mph 12 mph 58 % 0 in
16:07 75.4 °F 58.1 °F 30.1 in WNW 7 mph 12 mph 55 % 0 in
16:12 75.4 °F 59.5 °F 30.1 in West 13 mph 17 mph 58 % 0 in
16:17 76.3 °F 60.4 °F 30.1 in SW 6 mph 17 mph 58 % 0 in
16:22 76.6 °F 61.7 °F 30.1 in West 6 mph 14 mph 60 % 0 in
16:32 76.5 °F 58.6 °F 30.1 in WSW 10 mph 14 mph 54 % 0 in
16:42 76.3 °F 57.9 °F 30.1 in WNW 7 mph 13 mph 53 % 0 in
16:47 76.3 °F 59 °F 30.1 in West 3 mph 14 mph 55 % 0 in
16:52 75.9 °F 58.1 °F 30.1 in WNW 9 mph 14 mph 54 % 0 in
16:57 75.7 °F 58.5 °F 30.1 in WSW 7 mph 13 mph 55 % 0 in
17:02 76.3 °F 58.5 °F 30.1 in West 9 mph 13 mph 54 % 0 in
17:12 77.2 °F 58.6 °F 30.1 in WNW 6 mph 16 mph 53 % 0 in
17:17 76.8 °F 58.5 °F 30.1 in SW 4 mph 16 mph 53 % 0 in
17:22 76.6 °F 58.3 °F 30.1 in West 8 mph 14 mph 53 % 0 in
17:27 76.1 °F 57.7 °F 30.1 in WNW 9 mph 11 mph 53 % 0 in
17:32 76.8 °F 57.9 °F 30.1 in WSW 9 mph 13 mph 52 % 0 in
17:42 76.5 °F 57.6 °F 30.1 in SW 3 mph 13 mph 52 % 0 in
17:47 76.5 °F 58.1 °F 30.1 in WNW 7 mph 12 mph 53 % 0 in
17:52 76.1 °F 57.7 °F 30.1 in West 4 mph 12 mph 53 % 0 in
17:57 76.1 °F 57.2 °F 30.1 in WSW 8 mph 12 mph 52 % 0 in
18:02 75.9 °F 57.6 °F 30.1 in West 4 mph 12 mph 53 % 0 in
18:07 76.3 °F 58.5 °F 30.1 in NNW 3 mph 12 mph 54 % 0 in
18:12 77.4 °F 58.8 °F 30.1 in WSW 6 mph 12 mph 53 % 0 in
18:17 77.2 °F 58.3 °F 30.1 in SW 5 mph 12 mph 52 % 0 in
18:22 77 °F 59 °F 30.1 in SW 4 mph 13 mph 54 % 0 in
18:32 76.3 °F 57.9 °F 30.1 in West 4 mph 13 mph 53 % 0 in
18:37 76.5 °F 58.1 °F 30.1 in SSW 2 mph 13 mph 53 % 0 in
18:42 76.6 °F 58.8 °F 30.1 in WNW 9 mph 13 mph 54 % 0 in
18:52 76.5 °F 58.6 °F 30.1 in West 5 mph 12 mph 54 % 0 in
19:02 77.2 °F 58.3 °F 30.1 in West 6 mph 12 mph 52 % 0 in
19:12 76.3 °F 58.5 °F 30.1 in West 5 mph 14 mph 54 % 0 in
19:17 76.5 °F 58.6 °F 30.1 in West 7 mph 14 mph 54 % 0 in
19:22 76.3 °F 58.5 °F 30.1 in West 4 mph 14 mph 54 % 0 in
19:32 76.3 °F 58.5 °F 30.1 in WSW 4 mph 15 mph 54 % 0 in
19:37 76.3 °F 58.5 °F 30.1 in WNW 6 mph 15 mph 54 % 0 in
19:42 76.3 °F 58.5 °F 30.1 in West 9 mph 15 mph 54 % 0 in
19:47 75.7 °F 57.9 °F 30.1 in WNW 7 mph 12 mph 54 % 0 in
19:52 75.4 °F 58.1 °F 30.1 in NNW 4 mph 11 mph 55 % 0 in
20:02 74.5 °F 58.3 °F 30.1 in WSW 8 mph 11 mph 57 % 0 in
20:12 73.9 °F 58.3 °F 30.1 in WSW 4 mph 9 mph 58 % 0 in
20:17 74.5 °F 58.3 °F 30.1 in West 2 mph 9 mph 57 % 0 in
20:22 74.7 °F 57.9 °F 30.1 in West 4 mph 11 mph 56 % 0 in
20:32 74.8 °F 58.1 °F 30.1 in West 8 mph 11 mph 56 % 0 in
20:37 74.5 °F 58.8 °F 30.1 in WSW 8 mph 11 mph 58 % 0 in
20:42 74.1 °F 58.8 °F 30.1 in West 2 mph 11 mph 59 % 0 in
20:47 73.9 °F 58.6 °F 30.1 in WSW 2 mph 10 mph 59 % 0 in
20:52 73.6 °F 58.8 °F 30.1 in WSW 1 mph 10 mph 60 % 0 in
20:57 73 °F 58.3 °F 30.1 in SW 4 mph 9 mph 60 % 0 in
21:02 72.7 °F 58.5 °F 30.1 in SW 1 mph 6 mph 61 % 0 in
21:07 72.3 °F 59 °F 30.1 in West 2 mph 6 mph 63 % 0 in
21:12 72 °F 59.2 °F 30.1 in WSW 1 mph 6 mph 64 % 0 in
21:17 71.6 °F 58.8 °F 30.1 in West 1 mph 4 mph 64 % 0 in
21:22 71.4 °F 59 °F 30.1 in Calm   3 mph 65 % 0 in
21:32 70.9 °F 59 °F 30.1 in Calm   2 mph 66 % 0 in
21:37 70.5 °F 59 °F 30.1 in Calm   2 mph 67 % 0 in
21:42 70.2 °F 58.6 °F 30.1 in Calm   5 mph 67 % 0 in
21:47 69.8 °F 58.8 °F 30.1 in Calm   5 mph 68 % 0 in
21:52 69.8 °F 58.8 °F 30.1 in Calm   5 mph 68 % 0 in
21:57 69.6 °F 58.6 °F 30.1 in Calm   4 mph 68 % 0 in
22:02 69.6 °F 59 °F 30.1 in WNW 2 mph 3 mph 69 % 0 in
22:12 69.3 °F 59 °F 30.1 in Calm   3 mph 70 % 0 in
22:17 69.1 °F 59.4 °F 30.1 in Calm   3 mph 71 % 0 in
22:22 68.9 °F 59.2 °F 30.1 in Calm   3 mph 71 % 0 in
22:32 68.7 °F 59 °F 30.1 in West 1 mph 1 mph 71 % 0 in
22:37 68.7 °F 59.4 °F 30.1 in Calm   2 mph 72 % 0 in
22:42 68.5 °F 59.5 °F 30.1 in Calm   2 mph 73 % 0 in
22:47 68.4 °F 59.4 °F 30.1 in Calm   2 mph 73 % 0 in
22:52 68.4 °F 59.7 °F 30.1 in Calm   1 mph 74 % 0 in
22:57 68.4 °F 59.4 °F 30.1 in Calm   1 mph 73 % 0 in
23:02 68.2 °F 59.5 °F 30.1 in SW 1 mph 1 mph 74 % 0 in
23:07 68.2 °F 59.5 °F 30.1 in Calm   2 mph 74 % 0 in
23:12 68.2 °F 59.5 °F 30.1 in Calm   2 mph 74 % 0 in
23:17 68.2 °F 59.5 °F 30.1 in SW 2 mph 2 mph 74 % 0 in
23:22 68.2 °F 59.9 °F 30.1 in Calm   2 mph 75 % 0 in
23:32 68.2 °F 60.3 °F 30.1 in WNW 1 mph 2 mph 76 % 0 in
23:37 68.2 °F 59.9 °F 30.1 in West 2 mph 5 mph 75 % 0 in
23:42 68.4 °F 59.7 °F 30.1 in West 1 mph 8 mph 74 % 0 in
23:47 68.4 °F 59.7 °F 30.1 in WNW 4 mph 8 mph 74 % 0 in
23:52 68.4 °F 60.1 °F 30.1 in WSW 3 mph 8 mph 75 % 0 in
23:57 68.4 °F 60.1 °F 30.1 in WSW 2 mph 6 mph 75 % 0 in
Meteo18
Compliments of Weather Underground - 4 mb

Script developed by  Jim McMurry - jmcmurry@mwt.net Adapted for the template by  Wim van der Kuil - Leuven-Template.eu

You find our weather info also at:

European Weather Network

Weather Underground

Equipment we use:

Weather-station
Davis Vue

Weather-program
Meteohub

Weather-server
Raspberry PI 2 B+

Provider
1 and 1

Davis Vue

Meteohub

Raspberry PI 2 B+

1 and 1